Other Public Products
Issued by NWS Grand Forks, ND

Home | Current Version | Previous Version | Graphics & Text | Print | Product List | Glossary On
Versions: 1 2 3 4 5 6 7 8 9 10 11 12 13 14 15 16 17 18 19 20 21 22 23 24 25 26 27 28 29 30 31 32 33 34 35 36 37 38 39 40 41 42 43 44 45 46 47 48 49 50
966
FPUS83 KFGF 261010
OPUFGF
PRAIRIE TO PINES WEATHER ROUNDUP
NATIONAL WEATHER SERVICE EASTERN NORTH DAKOTA/GRAND FORKS ND
500 AM CDT THU MAY 26 2016

 **SATELLITE DATA USED TO AUGMENT SKY COVER AT AUTOMATED STATIONS**
 *****  WEATHER ACROSS EASTERN NORTH DAKOTA  *****

CITY           SKY/WX    TMP DP  RH WIND       PRES   REMARKS
GRAND FORKS    CLOUDY    57  55  93 S8        29.71R
GRAND FORKS AF CLOUDY    56  56  99 S5        29.71R
GRAND CITY NWS   N/A     55 N/A N/A SW5         N/A
BUXTON           N/A     58  58  99 S6          N/A
DEVILS LAKE    CLOUDY    55  54  96 W7        29.74S
FARGO          PTCLDY    51  49  92 W6        29.73F FOG
WAHPETON ARPT  MOSUNNY   52  46  82 CALM      29.76S
$$

 *****  WEATHER ACROSS CENTRAL AND WESTERN NORTH DAKOTA  *****

CITY           SKY/WX    TMP DP  RH WIND       PRES   REMARKS
JAMESTOWN      MOCLDY    55  53  93 W9        29.73S
BISMARCK       CLEAR     46  45  96 SW3       29.80S
MINOT          CLOUDY    58  55  90 SW8       29.74R
MINOT AFB      CLOUDY    55  54  94 W8        29.73R FOG
GARRISON         N/A     51  49  92 W10       29.77S
WILLISTON      FOG       47  46  97 NW6       29.80F VSB 3/4
DICKINSON      CLEAR     42  38  85 W3        29.81R
HETTINGER      CLOUDY    36  34  92 NW5       29.86S
$$

 *****  OTHER OBSERVATIONS NORTHEAST NORTH DAKOTA  *****

CITY           SKY/WX    TMP DP  RH WIND       PRES   REMARKS
WALHALLA       FAIR      57  57 100 W8        29.65S
LANGDON        CLOUDY    55  55 100 NW14      29.70R
CAVALIER       CLOUDY    57  57 100 W10       29.66R
GRAFTON        CLOUDY    59  59 100 W13       29.70R
CANDO          NOT AVBL
FORT TOTTEN      N/A     53  53 100 CALM      29.95S
ROLLA          CLOUDY    54  54 100 N8        29.75S
RUGBY          PTSUNNY   55  55 100 E3        29.74R
 ***** THE ABOVE OBSERVATIONS ARE NON NWS ARE NOT QUALITY
        CONTROLLED AND MAY MIS-REPORT RAIN FOR SNOW...
$$

 *****  OTHER OBSERVATIONS SOUTHEAST NORTH DAKOTA *****

CITY           SKY/WX    TMP DP  RH WIND       PRES   REMARKS
COOPERSTOWN    NOT AVBL
VALLEY CITY    FAIR      50  50 100 SW6       29.75S
OAKES            N/A    N/A N/A N/A MISG        N/A
GWINNER        FAIR      54  54 100 SW9       29.76S
BUFFALO          N/A     53  50  90 SW2         N/A
WYNDMERE         N/A     54  52  94 W9          N/A
 ***** THE ABOVE OBSERVATIONS ARE NON NWS ARE NOT QUALITY
       CONTROLLED AND MAY MIS-REPORT RAIN FOR SNOW...
$$

  *****  WEATHER ACROSS NORTHERN MINNESOTA  *****

CITY           SKY/WX    TMP DP  RH WIND       PRES   REMARKS
FLAG ISLAND    CLOUDY    57  55  94 SE16      29.69R
WARROAD        CLOUDY    57  54  88 S6        29.70S
ROSEAU         CLOUDY    59  54  82 S8        29.69R
HALLOCK        PTCLDY    57  55  94 SW12      29.66R
THF RVR FALLS  CLOUDY    57  54  88 S7        29.72F
HALSTAD        NOT AVBL
FOSSTON        CLEAR     52  50  93 S5        29.74S FOG
BAUDETTE       MOCLDY    54  52  93 S7        29.72R
WASKISH        MOCLDY    55  54  94 CALM      29.72S
CROOKSTON      CLOUDY    57  57 100 S10       29.73R FOG
$$
  *****  WEATHER ACROSS CENTRAL AND WEST MINNESOTA  *****

CITY           SKY/WX    TMP DP  RH WIND       PRES   REMARKS
BEMIDJI        MOCLDY    55  54  97 S6        29.73S
PARK RAPIDS    CLOUDY    59  57  93 SE3       29.73F
WADENA         PTCLDY    55  55 100 CALM      29.72F FOG
DETROIT LAKES  PTCLDY    55  54  94 CALM      29.75F
MOORHEAD       CLEAR     52  52 100 CALM      29.74S FOG
FERGUS FALLS   PTCLDY    55  55 100 NW9       29.72F
ELBOW LAKE     PTSUNNY   55  55  99 NW7       29.75S FOG
MORRIS MN      CLOUDY    55  52  88 W3        29.75S
STAPLES        CLOUDY    57  57 100 CALM      29.73F FOG
WHEATON        CLOUDY    57  55  94 W5        29.77S
$$
  *****  WEATHER ELSEWHERE ACROSS MINNESOTA  *****

CITY           SKY/WX    TMP DP  RH WIND       PRES   REMARKS
DULUTH         FOG       45  44  97 E7        29.79F VSB 1/4
INTRNTL FALLS  MOCLDY    54  52  93 SE6       29.75F
ELY            CLOUDY    52  48  87 CALM      29.80S
CLOQUET        FOG       45  43  93 E6        29.78F VSB 1/4
BRAINERD       FOG       57  57 100 CALM      29.75F VSB 1
HIBBING        FOG       49  49 100 SE5       29.78F VSB 1/2
ALEXANDRIA     CLOUDY    55  49  80 S7        29.75F
SAINT CLOUD    CLOUDY    60  59  96 CALM      29.76R
MINNEAPOLIS    CLOUDY    67  52  58 VRB7G17   29.73F
$$

  *****  WEATHER ACROSS SOUTH DAKOTA  *****

CITY           SKY/WX    TMP DP  RH WIND       PRES   REMARKS
SIOUX FALLS    PTCLDY    57  52  83 NW3       29.84R
BROOKINGS      CLEAR     56  52  86 CALM      29.82R
WATERTOWN      CLEAR     56  51  84 W10       29.81R
HURON          CLEAR     50  48  93 W5        29.82S
SISSETON         N/A     58  52  80 W17       29.75S
ABERDEEN       CLEAR     51  48  89 W9        29.81R
MITCHELL       CLEAR     56  51  84 W3        29.85R
PIERRE         CLEAR     49  46  90 S3        29.82F
MOBRIDGE       CLEAR     49  44  83 NW6       29.81F
RAPID CITY     CLEAR     46  42  86 W8        29.88S
$$

  *****  SOME WEATHER IN NEARBY STATES *****

CITY           SKY/WX    TMP DP  RH WIND       PRES   REMARKS
GLASGOW MT     CLEAR     43  41  93 W5        29.83R
GREAT FALLS MT CLOUDY    46  42  86 SW7       29.94S
CHEYENNE WY    CLEAR     38  32  79 W8        30.03R
SCOTTSBLUFF NE CLEAR     45  40  82 N9        29.95R
OMAHA NE       CLEAR     62  56  80 CALM      29.84F
DES MOINES IA  CLOUDY    64  57  78 CALM      29.84R
DAVENPORT IA   CLOUDY    72  63  73 SW12      29.87R
CHICAGO IL     PTCLDY    67  65  93 S9        29.87F
EAU CLAIRE WI  CLOUDY    56  56 100 CALM      29.78R
LA CROSSE WI   CLOUDY    63  62  97 SE7       29.79R
$$

  *****  SOME NATIONAL WEATHER *****

CITY           SKY/WX    TMP DP  RH WIND       PRES   REMARKS
LA GUARDIA NY  MOCLDY    72  56  57 SW3       30.08R
RALEIGH NC     MOCLDY    66  61  84 CALM      30.18R
ATLANTA GA     CLOUDY    70  59  68 S3        30.16R
NEW ORLEANS LA CLOUDY    75  72  90 S3        30.06S
OKLAHOMA CITY  CLOUDY    77  74  90 S16       29.86F
ALBUQUERQUE NM PTCLDY    56  14  19 E6        29.97F
SALT LAKE CITY PTCLDY    51  45  79 N6        30.00S
LOS ANGELES CA PTCLDY    58  53  84 SW3       30.05F
BOISE ID       CLEAR     51  41  68 S6        30.01S
SEATTLE WA     MOCLDY    51  42  71 S8        30.20S
$$

*** WEATHER ACROSS MANITOBA...SASKATCHEWAN AND ONTARIO ***
                ***ONTARIO***

CITY           SKY/WX    TMP DP  RH WIND       PRES   REMARKS
GERALDTON      LGT RAIN  52  46  82 E6        29.94F
THUNDER BAY    MOCLDY    50  46  87 CALM      29.87R
SIOUX LOOKOUT  CLOUDY    54  48  82 E5        29.81F
TORONTO        CLOUDY    66  55  68 E5        30.03S
BIG TROUT LK   PTCLDY    50  43  76 SE8       29.91S
PICKLE LAKE    NOT AVBL
DRYDEN         MOCLDY    54  48  82 E6        29.79F
KENORA         CLOUDY    55  52  88 SE10      29.73F
$$
                *** MANITOBA***

CITY           SKY/WX    TMP DP  RH WIND       PRES   REMARKS
BRANDON        CLOUDY    54  52  94 N6        29.76R
DAUPHIN        MOCLDY    55  52  88 W7        29.80S
ISLAND LAKE    PTCLDY    55  50  82 SE5       29.82F
PILOT MOUND      N/A     54  52  94 N13         N/A
THE PAS        PTCLDY    45  41  87 VRB2      29.85S
THOMPSON       PTCLDY    41  41 100 CALM      29.84R
WINNIPEG       LGT RAIN  55  55 100 NE12      29.60F
LYNN LAKE      CLOUDY    46  45  93 N9G17     29.89R FOG
CHURCHILL      LGT RAIN  32  32 100 E21G26    29.89F WCI  20
GILLAM         MOCLDY    50  48  93 NW12      29.85R
$$
                ***SASKATCHEWAN***

CITY           SKY/WX    TMP DP  RH WIND       PRES   REMARKS
ESTEVAN        LGT RAIN  54  52  94 VRB2      29.76S
KINDERSLEY     MOCLDY    46  45  93 N5        29.91R
LLOYDMINSTER   CLEAR     45  43  93 S3        29.91R
PRINCE ALBERT  PTCLDY    45  43  93 W3        29.87S
REGINA         LGT RAIN  52  52 100 N12       29.83S
YORKTON        LGT RAIN  54  52  94 N10       29.85S
N. BATTLEFORD  CLEAR     45  45 100 N2        29.91F   C1F1C2F2C3F3C4F4C5F5C6F6C7F7C8F8C9F9CaFaCbFbCcFcCdFdCe!



USA.gov is the U.S. government's official web portal to all federal, state and local government web resources and services.